TimeEDT,TemperatureF,Dew PointF,Humidity,Sea Level PressureIn,VisibilityMPH,Wind Direction,Wind SpeedMPH,Gust SpeedMPH,PrecipitationIn,Events,Conditions,WindDirDegrees,DateUTC
12:15 AM,48.2,47.1,96,29.79,10.0,West,4.6,-,N/A,,Mostly Cloudy,280,2013-05-06 04:15:00
12:35 AM,48.6,47.7,97,29.80,10.0,Calm,Calm,-,N/A,Rain,Light Rain,0,2013-05-06 04:35:00
12:55 AM,48.6,47.5,96,29.80,7.0,Calm,Calm,-,0.01,Rain,Rain,0,2013-05-06 04:55:00
1:15 AM,48.7,47.7,96,29.80,5.0,Calm,Calm,-,0.06,Rain,Rain,0,2013-05-06 05:15:00
1:35 AM,48.4,47.3,96,29.80,7.0,Calm,Calm,-,0.07,Rain,Light Rain,0,2013-05-06 05:35:00
1:55 AM,48.7,47.8,97,29.79,5.0,Calm,Calm,-,0.09,Rain,Rain,0,2013-05-06 05:55:00
2:15 AM,47.8,47.1,97,29.80,7.0,SW,3.5,-,0.02,Rain,Rain,230,2013-05-06 06:15:00
2:35 AM,47.3,46.6,97,29.79,7.0,Calm,Calm,-,0.09,Rain,Rain,0,2013-05-06 06:35:00
2:55 AM,47.1,46.4,97,29.78,7.0,East,3.5,-,0.12,Rain,Light Rain,80,2013-05-06 06:55:00
3:15 AM,46.9,46.4,98,29.78,7.0,Calm,Calm,-,0.02,Rain,Light Rain,0,2013-05-06 07:15:00
3:35 AM,46.9,46.4,98,29.77,10.0,Calm,Calm,-,0.03,Rain,Light Rain,0,2013-05-06 07:35:00
3:55 AM,46.8,45.9,97,29.78,10.0,Calm,Calm,-,0.04,,Overcast,0,2013-05-06 07:55:00
4:15 AM,46.4,45.5,97,29.78,10.0,Calm,Calm,-,N/A,,Mostly Cloudy,0,2013-05-06 08:15:00
4:35 AM,45.3,44.4,97,29.78,10.0,Calm,Calm,-,N/A,,Scattered Clouds,0,2013-05-06 08:35:00
4:55 AM,45.1,44.2,97,29.80,10.0,Calm,Calm,-,N/A,,Mostly Cloudy,0,2013-05-06 08:55:00
5:15 AM,45.5,44.6,97,29.80,10.0,Calm,Calm,-,N/A,,Overcast,0,2013-05-06 09:15:00
5:35 AM,44.6,43.5,96,29.80,1.8,Calm,Calm,-,N/A,,Mostly Cloudy,0,2013-05-06 09:35:00
5:55 AM,43.3,42.3,96,29.80,0.5,Calm,Calm,-,N/A,Fog,Fog,0,2013-05-06 09:55:00
6:15 AM,43.9,42.8,96,29.81,0.2,Calm,Calm,-,N/A,Fog,Fog,0,2013-05-06 10:15:00
6:35 AM,43.7,42.8,97,29.81,0.2,Calm,Calm,-,N/A,Fog,Fog,0,2013-05-06 10:35:00
6:55 AM,42.8,41.7,96,29.82,0.2,Calm,Calm,-,N/A,Fog,Fog,0,2013-05-06 10:55:00
7:15 AM,42.4,41.2,95,29.82,0.2,Calm,Calm,-,N/A,Fog,Fog,0,2013-05-06 11:15:00
7:35 AM,42.3,41.0,95,29.83,0.2,Calm,Calm,-,N/A,Fog,Fog,0,2013-05-06 11:35:00
7:55 AM,42.8,41.4,95,29.83,0.2,Calm,Calm,-,N/A,Fog,Fog,0,2013-05-06 11:55:00
8:15 AM,43.9,42.8,96,29.83,0.2,Calm,Calm,-,N/A,Fog,Fog,0,2013-05-06 12:15:00
8:35 AM,45.5,44.2,95,29.83,7.0,Calm,Calm,-,N/A,,Scattered Clouds,0,2013-05-06 12:35:00
8:55 AM,46.9,45.5,95,29.83,10.0,Calm,Calm,-,N/A,,Scattered Clouds,0,2013-05-06 12:55:00
9:15 AM,47.7,46.4,95,29.84,10.0,South,5.8,-,N/A,,Clear,170,2013-05-06 13:15:00
9:35 AM,50.4,45.3,83,29.85,10.0,SW,5.8,-,N/A,,Scattered Clouds,220,2013-05-06 13:35:00
9:55 AM,50.9,41.7,71,29.86,10.0,South,6.9,-,N/A,,Mostly Cloudy,190,2013-05-06 13:55:00
10:15 AM,51.8,40.1,64,29.86,10.0,South,6.9,-,N/A,,Scattered Clouds,190,2013-05-06 14:15:00
10:35 AM,52.7,40.1,62,29.86,10.0,SSE,5.8,-,N/A,,Clear,150,2013-05-06 14:35:00
10:55 AM,52.9,39.2,60,29.87,10.0,SSE,8.1,-,N/A,,Clear,160,2013-05-06 14:55:00
11:15 AM,54.7,39.4,56,29.87,10.0,SE,5.8,-,N/A,,Clear,130,2013-05-06 15:15:00
11:35 AM,55.0,38.3,53,29.87,10.0,SSW,5.8,-,N/A,,Scattered Clouds,200,2013-05-06 15:35:00
11:55 AM,55.8,38.7,53,29.87,10.0,SE,9.2,-,N/A,,Scattered Clouds,140,2013-05-06 15:55:00
12:15 PM,54.3,37.8,54,29.87,10.0,SSW,6.9,-,N/A,,Scattered Clouds,200,2013-05-06 16:15:00
12:35 PM,55.8,39.2,54,29.87,10.0,SSW,8.1,-,N/A,,Scattered Clouds,200,2013-05-06 16:35:00
12:55 PM,57.0,39.6,52,29.87,10.0,South,5.8,-,N/A,,Scattered Clouds,190,2013-05-06 16:55:00
1:15 PM,57.7,41.4,54,29.86,10.0,SSW,6.9,-,N/A,,Scattered Clouds,200,2013-05-06 17:15:00
1:35 PM,58.1,39.4,50,29.85,10.0,ESE,8.1,-,N/A,,Clear,120,2013-05-06 17:35:00
1:55 PM,57.9,38.8,49,29.85,10.0,South,3.5,-,N/A,,Clear,170,2013-05-06 17:55:00
2:15 PM,58.5,39.0,48,29.85,10.0,South,5.8,-,N/A,,Scattered Clouds,180,2013-05-06 18:15:00
2:35 PM,59.4,39.0,47,29.85,10.0,SSE,9.2,-,N/A,,Scattered Clouds,160,2013-05-06 18:35:00
2:55 PM,59.2,40.5,50,29.85,10.0,SSW,6.9,-,N/A,,Mostly Cloudy,210,2013-05-06 18:55:00
3:15 PM,58.6,39.9,50,29.86,10.0,South,4.6,-,N/A,,Mostly Cloudy,180,2013-05-06 19:15:00
3:35 PM,58.3,42.4,56,29.85,10.0,SSE,9.2,-,N/A,,Overcast,150,2013-05-06 19:35:00
3:55 PM,57.0,40.3,54,29.85,10.0,SW,4.6,-,N/A,,Mostly Cloudy,220,2013-05-06 19:55:00
4:15 PM,57.0,40.6,54,29.85,10.0,SW,8.1,-,N/A,,Overcast,220,2013-05-06 20:15:00
4:35 PM,56.7,40.8,55,29.85,10.0,SSW,3.5,-,N/A,,Overcast,210,2013-05-06 20:35:00
4:55 PM,55.6,40.3,56,29.85,10.0,SSE,3.5,-,N/A,,Overcast,150,2013-05-06 20:55:00
5:15 PM,55.0,41.9,61,29.86,10.0,SSE,8.1,-,N/A,,Overcast,150,2013-05-06 21:15:00
5:35 PM,54.1,41.0,61,29.86,10.0,South,3.5,-,N/A,,Overcast,180,2013-05-06 21:35:00
5:55 PM,53.6,40.5,61,29.86,10.0,South,4.6,-,N/A,,Overcast,180,2013-05-06 21:55:00
6:15 PM,53.2,41.5,65,29.87,10.0,Calm,Calm,-,N/A,,Overcast,0,2013-05-06 22:15:00
6:55 PM,52.3,42.3,69,29.87,10.0,Calm,Calm,-,N/A,,Overcast,0,2013-05-06 22:55:00
7:15 PM,51.3,42.8,73,29.88,10.0,SE,6.9,-,N/A,,Overcast,140,2013-05-06 23:15:00
7:35 PM,50.5,43.0,75,29.88,10.0,South,4.6,-,N/A,,Overcast,180,2013-05-06 23:35:00
7:55 PM,50.0,43.0,77,29.89,10.0,ESE,3.5,-,N/A,,Overcast,120,2013-05-06 23:55:00
8:15 PM,49.6,43.2,78,29.89,10.0,SSE,4.6,-,N/A,,Mostly Cloudy,160,2013-05-07 00:15:00
8:35 PM,48.7,43.0,80,29.90,10.0,Calm,Calm,-,N/A,,Scattered Clouds,0,2013-05-07 00:35:00
8:55 PM,47.5,42.8,84,29.90,10.0,Calm,Calm,-,N/A,,Scattered Clouds,0,2013-05-07 00:55:00
9:15 PM,47.3,43.7,87,29.91,10.0,Calm,Calm,-,N/A,,Overcast,0,2013-05-07 01:15:00
9:35 PM,46.6,43.5,89,29.91,10.0,Calm,Calm,-,N/A,,Scattered Clouds,0,2013-05-07 01:35:00
9:55 PM,45.7,43.0,90,29.92,10.0,Calm,Calm,-,N/A,,Clear,0,2013-05-07 01:55:00
10:15 PM,44.6,43.0,94,29.92,10.0,Calm,Calm,-,N/A,,Clear,0,2013-05-07 02:15:00
10:35 PM,43.3,42.1,95,29.93,10.0,Calm,Calm,-,N/A,,Clear,0,2013-05-07 02:35:00
10:55 PM,43.2,42.1,96,29.93,10.0,Calm,Calm,-,N/A,,Scattered Clouds,0,2013-05-07 02:55:00
11:15 PM,43.0,42.1,97,29.94,10.0,Calm,Calm,-,N/A,,Scattered Clouds,0,2013-05-07 03:15:00
11:35 PM,42.8,41.7,96,29.93,10.0,Calm,Calm,-,N/A,,Scattered Clouds,0,2013-05-07 03:35:00
11:55 PM,42.3,41.2,96,29.93,7.0,Calm,Calm,-,N/A,,Scattered Clouds,0,2013-05-07 03:55:00